Погода в Заркенте

Узбекистан     40°18′45″N   66°43′55″E
темп.,
°C
ветер,
м/с
пор.,
м/с
влажн.,
%
обл.,
%
осадки,
мм/ч
давл.,
гПа
погр.,
м
26 февраля, пт
пт2623:00−9всв335952 0.0 1038228
02:00−10всв356764 0.0 1037256
05:00−11всв346732 0.0 1035192
08:00−10св23550 0.0 1035146
11:00−6вюв21330 0.0 1032490
14:00−3юз21260 0.0 1030728
17:00−2ююз22282 0.0 1029623
20:00−5юв114496 0.0 103036
27 февраля, сб
сб2723:00−4вюв115398 0.0 1029121
02:00−4зюз1149100 0.0 1028201
05:00−4ююз1153100 0.0 1028177
08:00−4ю1249100 0.0 1029249
11:00−1юз342575 0.0 1029656
14:00+2юз45320 0.0 1027962
17:00+2зюз24350 0.0 1027860
20:00−3в01500 0.0 102921
28 февраля, вс
вс2823:00−3всв12460 0.0 102921
02:00−2ссв22460 0.0 102721
05:00−2св12500 0.0 102621
08:000св12470 0.0 102522
11:00+6всв01310 0.0 1023337
14:00+9ю11290 0.0 1020704
17:00+9зсз114027 0.0 1019134
20:00+3в125022 0.0 102022
1 марта, пн
пн123:00+2ссв125013 0.0 102122
02:00+2всв014489 0.0 102022
05:00+1всв013977 0.0 102022
08:00+3в11380 0.0 102022
11:00+11ююв11230 0.0 1019306
14:00+14юз47220 0.0 10181204
17:00+14зюз59280 0.0 1017457
20:00+8зюз23350 0.0 101923
2 марта, вт
вт223:00+6юз234215 0.0 102024
02:00+4зюз124663 0.0 102024
05:00+4зюз124269 0.0 102025
08:00+5в0148100 0.0 102222
11:00+11юв1129100 0.0 1022241
14:00+14ююз222597 0.0 1020607
17:00+14юз342998 0.0 1020435
20:00+9св4545100 0.0 1021132